User: anonymous   Login
Location: Aix-en-Ergny
(50.5839°N, 1.9996°E)
Time: 17:38:31
(UTC+00:00)
Language:

SJ-12 - Orbit

View from above orbital plane
View from above orbital plane
View from above satellite
View from above satellite

Ground track
Ground track

The orbit data is extracted from the following two-line orbital elements,

1 36596U 10027A   19348.90779576 +.00000258 +00000-0 +27610-4 0  9999
2 36596 097.6396 337.0416 0011046 213.7664 146.2855 14.96621092518034
Epoch (UTC): 14 December 2019 21:47:13
Eccentricity: 0.0011046
inclination: 97.6396°
perigee height: 569 km
apogee height: 585 km
right ascension of ascending node: 337.0416°
argument of perigee: 213.7664°
revolutions per day: 14.96621092
mean anomaly at epoch: 146.2855°
orbit number at epoch: 51803

The dashed part of the orbit path shows where the satellite is in the earth's shadow,  

DLR